This is the latest recevied weather packets stored in our database for station/object KI2K. If no packets are shown the sender has not sent any weather packets the latest 10 day(s).
| Time | Temp. | Humidity | Pressure | Rain* | Wind** | Luminosity | Snow |
|---|---|---|---|---|---|---|---|
| 1777639268 | 7.78° C | 95% | 1012.8 hPa | 0 mm | - | 93 W/m² | - |
| 1777638964 | 7.78° C | 96% | 1012.8 hPa | 0 mm | - | 68 W/m² | - |
| 1777638660 | 7.78° C | 97% | 1012.7 hPa | 0 mm | - | 86 W/m² | - |
| 1777638357 | 7.78° C | 98% | 1012.7 hPa | 0 mm | - | 92 W/m² | - |
| 1777638053 | 7.78° C | 98% | 1012.5 hPa | 0 mm | - | 53 W/m² | - |
| 1777637750 | 7.78° C | 98% | 1012.4 hPa | 0 mm | - | 50 W/m² | - |
| 1777637446 | 7.78° C | 98% | 1012.4 hPa | 0 mm | - | 17 W/m² | - |
| 1777637144 | 7.78° C | 99% | 1012.4 hPa | 0 mm | - | 19 W/m² | - |
| 1777636840 | 7.78° C | 99% | 1012.1 hPa | 0 mm | - | 49 W/m² | - |
| 1777636535 | 7.78° C | 99% | 1012.2 hPa | 0 mm | - | 31 W/m² | - |
| 1777636232 | 8.33° C | 99% | 1012.1 hPa | 0 mm | - | 18 W/m² | - |
| 1777635926 | 8.33° C | 99% | 1011.9 hPa | 0 mm | - | 26 W/m² | - |
| 1777635622 | 8.33° C | 99% | 1011.8 hPa | 0 mm | - | 10 W/m² | - |
| 1777635319 | 8.89° C | 99% | 1011.5 hPa | 0 mm | - | 3 W/m² | - |
| 1777635016 | 8.89° C | 99% | 1011.6 hPa | 0 mm | - | 6 W/m² | - |
| 1777634712 | 8.89° C | 99% | 1011.6 hPa | 0 mm | - | 6 W/m² | - |
| 1777634410 | 8.89° C | 99% | 1011.2 hPa | 0 mm | - | 8 W/m² | - |
| 1777634106 | 8.89° C | 99% | 1011.2 hPa | 1.27 mm | - | 2 W/m² | - |
| 1777633803 | 8.89° C | 99% | 1011.5 hPa | 1.27 mm | - | 1 W/m² | - |
| 1777633501 | 8.89° C | 99% | 1011.3 hPa | 1.27 mm | - | 0 W/m² | - |
| 1777633199 | 8.89° C | 98% | 1011.4 hPa | 0 mm | - | 0 W/m² | - |
| 1777632895 | 8.89° C | 98% | 1011.3 hPa | 0 mm | - | 0 W/m² | - |
| 1777632591 | 8.89° C | 98% | 1011.2 hPa | 0 mm | - | 0 W/m² | - |
| 1777632288 | 8.89° C | 98% | 1011.3 hPa | 1.78 mm | - | 0 W/m² | - |
| 1777631985 | 8.89° C | 98% | 1011.3 hPa | 4.83 mm | - | 0 W/m² | - |
* Rain latest hour (hover to see other rain measurements)
** Current wind speed in m/s (hover to see current wind gust speed)